Location: Augustenthal
(51.7167°N, 10.2833°E)
Time: 08:24:24
(UTC+00:00)

Cosmos 1666 - Pass Details

Date: 18 May 2021
Orbit: 495 x 519 km, 82.5° (Epoch: 20 June)

Event Time Altitude Azimuth Distance (km) Brightness Sun altitude
Rises 20:24:33 0° 341° (NNW) 2,598 7.7 -9.4°
Reaches altitude 10° 20:26:50 10° 331° (NNW) 1,709 6.9 -9.6°
Maximum altitude 20:30:08 30° 269° (W) 915 4.4 -10.0°
Drops below altitude 10° 20:33:24 10° 207° (SSW) 1,695 5.1 -10.3°
Enters shadow 20:35:22 - 197° (SSW) 2,457 5.8 -10.5°
